Weather History for Huntsville, AL

Change the Weather History Date:

Sunday, December 15, 2013

  Actual Average Record
Temperature  
Mean Temperature 35 °F 44 °F  
Max Temperature 39 °F 53 °F 79 °F (1956)
Min Temperature 31 °F 34 °F 5 °F (1914)
Degree Days  
Heating Degree Days 30 21  
Month to date heating degree days 312 294  
Since 1 July heating degree days 947 821  
Cooling Degree Days 0 0  
Month to date cooling degree days 1 0  
Year to date cooling degree days 1835 1949  
Moisture  
Dew Point 30 °F    
Average Humidity 82    
Maximum Humidity 89    
Minimum Humidity 75    
Precipitation  
Precipitation T in 0.18 in 1.80 in (1902)
Month to date precipitation 4.29 2.96  
Year to date precipitation 56.01 51.53  
Snow  
Snow 0.00 in - - ()
Month to date snowfall 0.0  
Since 1 July snowfall T  
Snow Depth 0.00 in    
Sea Level Pressure  
Sea Level Pressure 30.18 in    
Wind  
Wind Speed 8 mph (NW)    
Max Wind Speed 18 mph    
Max Gust Speed 24 mph    
Visibility 9 miles    
Events      
T = Trace of Precipitation, MM = Missing Value Source: NWS Daily Summary

Daily Weather History Graph

Daily Weather History Graph

Search for Another Location

Airport:

Trip Planner

Search our weather history database for the weather conditions in past years. The results will help you decide how hot, cold, wet, or windy it might be!

Date:

Astronomy

Dec. 15, 2013 Rise Set
Actual Time 6:46 AM CST 4:37 PM CST
Civil Twilight 6:18 AM CST 5:05 PM CST
Nautical Twilight 5:47 AM CST 5:37 PM CST
Astronomical Twilight 5:16 AM CST 6:08 PM CST
Moon 3:39 PM CST (12/15) 5:05 AM CST (12/15)
Length of Visible Light 10h 46m
Length of Day
9h 50m
Waxing Gibbous, 98% of the Moon is Illuminated
Dec 15
Waxing Gibbous
Dec 17
Full
Dec 25
Last Quarter
Jan 1
New
Jan 7
First Quarter

Hourly Weather History & Observations

Time (CST) Temp. Windchill Dew Point Humidity Pressure Visibility Wind Dir Wind Speed Gust Speed Precip Events Conditions
12:44 AM 37.4 °F 29.3 °F 33.8 °F 87% 30.02 in 10.0 mi NW 12.7 mph - N/A   Overcast
12:53 AM 37.9 °F 30.5 °F 33.1 °F 83% 30.02 in 10.0 mi NW 11.5 mph - N/A   Overcast
1:53 AM 37.9 °F 30.5 °F 33.1 °F 83% 30.04 in 10.0 mi NW 11.5 mph - 0.00 in   Overcast
2:23 AM 37.4 °F 30.8 °F 33.8 °F 87% 30.05 in 10.0 mi NW 9.2 mph - N/A   Overcast
2:53 AM 37.0 °F 28.1 °F 33.1 °F 86% 30.06 in 10.0 mi NW 15.0 mph 24.2 mph N/A   Overcast
3:53 AM 37.0 °F 28.9 °F 32.0 °F 82% 30.08 in 10.0 mi NW 12.7 mph - N/A   Overcast
4:35 AM 37.4 °F 30.3 °F 30.2 °F 75% 30.09 in 10.0 mi NNW 10.4 mph 19.6 mph N/A   Overcast
4:53 AM 36.0 °F 29.0 °F 32.0 °F 86% 30.10 in 10.0 mi NW 9.2 mph - N/A   Overcast
5:53 AM 36.0 °F 27.5 °F 30.0 °F 79% 30.13 in 10.0 mi NNW 12.7 mph - N/A   Overcast
6:33 AM 35.6 °F 28.6 °F 30.2 °F 81% 30.14 in 10.0 mi NNW 9.2 mph - 0.00 in   Light Drizzle
6:53 AM 36.0 °F 30.3 °F 30.9 °F 82% 30.16 in 10.0 mi NNW 6.9 mph - 0.00 in   Overcast
7:53 AM 35.1 °F 26.9 °F 30.9 °F 85% 30.18 in 8.0 mi NW 11.5 mph - N/A   Overcast
8:38 AM 35.6 °F 29.9 °F 30.2 °F 81% 30.19 in 10.0 mi NW 6.9 mph - N/A   Overcast
8:53 AM 36.0 °F 29.0 °F 30.0 °F 79% 30.20 in 10.0 mi NW 9.2 mph - N/A   Overcast
9:53 AM 36.0 °F 28.0 °F 30.0 °F 79% 30.22 in 9.0 mi NW 11.5 mph - N/A   Overcast
10:53 AM 36.0 °F 29.6 °F 30.0 °F 79% 30.22 in 9.0 mi NNW 8.1 mph - N/A   Overcast
11:53 AM 35.1 °F 26.9 °F 30.0 °F 82% 30.20 in 8.0 mi NW 11.5 mph - N/A   Overcast
12:53 PM 35.1 °F 29.3 °F 28.9 °F 78% 30.19 in 9.0 mi WNW 6.9 mph - N/A   Overcast
1:23 PM 35.6 °F 29.2 °F 28.4 °F 75% 30.19 in 10.0 mi NW 8.1 mph - N/A   Overcast
1:53 PM 35.1 °F 29.3 °F 28.9 °F 78% 30.22 in 10.0 mi NW 6.9 mph - N/A   Overcast
2:53 PM 36.0 °F 30.3 °F 28.0 °F 73% 30.22 in 10.0 mi NNW 6.9 mph - N/A   Mostly Cloudy
3:53 PM 36.0 °F 30.3 °F 28.9 °F 76% 30.24 in 10.0 mi WNW 6.9 mph - N/A   Overcast
4:53 PM 35.1 °F 32.2 °F 28.0 °F 76% 30.24 in 10.0 mi West 3.5 mph - N/A   Overcast
5:53 PM 35.1 °F 30.1 °F 28.0 °F 76% 30.26 in 10.0 mi NW 5.8 mph - N/A   Overcast
6:53 PM 35.1 °F 30.1 °F 28.0 °F 76% 30.27 in 10.0 mi WNW 5.8 mph - N/A   Overcast
7:53 PM 34.0 °F - 28.0 °F 79% 30.28 in 10.0 mi Calm Calm - N/A   Overcast
8:53 PM 34.0 °F 29.8 °F 28.0 °F 79% 30.27 in 10.0 mi WNW 4.6 mph - N/A   Overcast
9:53 PM 33.1 °F 28.7 °F 28.0 °F 82% 30.27 in 9.0 mi WSW 4.6 mph - N/A   Overcast
10:03 PM 33.8 °F - 28.4 °F 81% 30.26 in 8.0 mi Calm Calm - N/A   Overcast
10:53 PM 33.1 °F 28.7 °F 28.0 °F 82% 30.27 in 4.0 mi WSW 4.6 mph - N/A   Haze
11:30 PM 32.0 °F 26.4 °F 26.6 °F 80% 30.24 in 4.0 mi South 5.8 mph - N/A   Haze
11:53 PM 30.9 °F 27.5 °F 27.0 °F 85% 30.26 in 4.0 mi SSW 3.5 mph - N/A   Clear